Weather History for Clarksville, TN

Change the Weather History Date:

Wednesday, October 10, 2012

  Actual Average Record
Temperature  
Mean Temperature 50 °F -  
Max Temperature 63 °F - 89 °F (2010)
Min Temperature 37 °F - 33 °F (1964)
Degree Days  
Heating Degree Days 15    
Month to date heating degree days 90  
Since 1 July heating degree days 127  
Cooling Degree Days 0    
Month to date cooling degree days 0  
Growing Degree Days 3 (Base 50)    
Moisture  
Dew Point 40 °F    
Average Humidity 63    
Maximum Humidity 89    
Minimum Humidity 36    
Precipitation  
Precipitation T in - 2.56 in (2002)
Month to date precipitation 2.08  
Sea Level Pressure  
Sea Level Pressure 30.16 in    
Wind  
Wind Speed 6 mph (NW)    
Max Wind Speed 20 mph    
Max Gust Speed 25 mph    
Visibility 10 miles    
Events      
T = Trace of Precipitation, MM = Missing Value Source: NWS Daily Summary

Daily Weather History Graph

Daily Weather History Graph

Search for Another Location

Airport:

Trip Planner

Search our weather history database for the weather conditions in past years. The results will help you decide how hot, cold, wet, or windy it might be!

Date:

Astronomy

Oct. 10, 2012 Rise Set
Actual Time 6:52 AM CDT 6:19 PM CDT
Civil Twilight 6:27 AM CDT 6:45 PM CDT
Nautical Twilight 5:57 AM CDT 7:15 PM CDT
Astronomical Twilight 5:27 AM CDT 7:45 PM CDT
Moon 1:36 AM CDT (10/10) 3:14 PM CDT (10/10)
Length of Visible Light 12h 18m
Length of Day
11h 26m
Waning Crescent, 27% of the Moon is Illuminated
Oct 10
Waning Crescent
Oct 15
New
Oct 21
First Quarter
Oct 29
Full
Nov 6
Last Quarter

Hourly Weather History & Observations

Time (CDT) Temp. Windchill Dew Point Humidity Pressure Visibility Wind Dir Wind Speed Gust Speed Precip Events Conditions
12:52 AM 50.0 °F - 46.0 °F 86% 30.02 in 10.0 mi Calm Calm - N/A   Partly Cloudy
1:52 AM 50.0 °F - 46.0 °F 86% 30.04 in 10.0 mi SSW 3.5 mph - N/A   Scattered Clouds
2:52 AM 52.0 °F - 46.9 °F 83% 30.03 in 10.0 mi Calm Calm - N/A   Overcast
3:52 AM 52.0 °F - 48.0 °F 86% 30.04 in 10.0 mi Calm Calm - N/A   Overcast
4:52 AM 54.0 °F - 48.0 °F 80% 30.05 in 10.0 mi SSW 5.8 mph - N/A   Overcast
5:52 AM 54.0 °F - 48.9 °F 83% 30.06 in 10.0 mi SW 4.6 mph - 0.00 in   Overcast
6:47 AM 55.4 °F - 48.2 °F 77% 30.09 in 10.0 mi WNW 4.6 mph - N/A   Overcast
6:52 AM 55.0 °F - 50.0 °F 83% 30.09 in 10.0 mi WNW 4.6 mph - N/A   Overcast
7:52 AM 55.9 °F - 50.0 °F 80% 30.12 in 10.0 mi NW 10.4 mph - N/A   Overcast
8:41 AM 53.6 °F - 46.4 °F 77% 30.15 in 10.0 mi North 17.3 mph 21.9 mph N/A   Overcast
8:52 AM 53.1 °F - 45.0 °F 74% 30.16 in 10.0 mi NNW 15.0 mph - N/A   Overcast
9:52 AM 54.0 °F - 39.0 °F 57% 30.19 in 10.0 mi NNW 16.1 mph 20.7 mph N/A   Overcast
11:52 AM 60.1 °F - 35.1 °F 39% 30.21 in 10.0 mi NNW 8.1 mph 16.1 mph N/A   Clear
12:52 PM 61.0 °F - 37.9 °F 42% 30.20 in 10.0 mi NW 9.2 mph 18.4 mph N/A   Clear
1:52 PM 61.0 °F - 37.9 °F 42% 30.19 in 10.0 mi NW 9.2 mph 20.7 mph N/A   Clear
2:52 PM 62.1 °F - 36.0 °F 38% 30.19 in 10.0 mi NW 8.1 mph 20.7 mph N/A   Clear
3:52 PM 62.1 °F - 35.1 °F 37% 30.19 in 10.0 mi NW 11.5 mph - N/A   Clear
4:52 PM 61.0 °F - 33.1 °F 35% 30.19 in 10.0 mi NNW 10.4 mph - N/A   Clear
5:52 PM 57.9 °F - 30.9 °F 36% 30.20 in 10.0 mi NNW 9.2 mph - N/A   Clear
6:52 PM 52.0 °F - 32.0 °F 47% 30.22 in 10.0 mi North 4.6 mph - N/A   Clear
7:52 PM 46.9 °F - 34.0 °F 61% 30.23 in 10.0 mi North 4.6 mph - N/A   Clear
8:52 PM 45.0 °F 41.8 °F 34.0 °F 65% 30.25 in 10.0 mi North 5.8 mph - N/A   Clear
9:52 PM 44.1 °F 41.5 °F 33.1 °F 65% 30.26 in 10.0 mi NNE 4.6 mph - N/A   Clear
10:52 PM 45.0 °F - 32.0 °F 60% 30.26 in 10.0 mi Calm Calm - N/A   Clear
11:52 PM 42.1 °F - 34.0 °F 73% 30.27 in 10.0 mi Calm Calm - N/A   Clear